Weather History for CYYJ - January, 2013

Change the Weather History Date:

Wednesday, January 23, 2013

  Actual Average Record
Temperature  
Mean Temperature 37 °F -  
Max Temperature 42 °F 46 °F 57 °F (2015)
Min Temperature 32 °F 34 °F 26 °F (2008)
Degree Days  
Heating Degree Days 28    
Moisture  
Dew Point 36 °F    
Average Humidity 93    
Maximum Humidity 100    
Minimum Humidity 87    
Precipitation  
Precipitation 0.08 in 0.14 in - ()
Sea Level Pressure  
Sea Level Pressure 29.91 in    
Wind  
Wind Speed 3 mph ()    
Max Wind Speed 6 mph    
Max Gust Speed -    
Visibility 12.6 miles    
Events Rain    
Averages and records for this station are not official NWS values.
T = Trace of Precipitation, MM = Missing Value Source: Averaged Metar Reports

Daily Weather History Graph

Daily Weather History Graph

Search for Another Location

Airport or City:

Trip Planner

Search our weather history database for the weather conditions in past years. The results will help you decide how hot, cold, wet, or windy it might be!

Date:

Astronomy

Jan. 23, 2013 Rise Set
Actual Time 7:53 AM PST 4:58 PM PST
Civil Twilight 7:18 AM PST 5:33 PM PST
Nautical Twilight 6:40 AM PST 6:11 PM PST
Astronomical Twilight 6:03 AM PST 6:48 PM PST
Moon 2:09 PM PST (1/23) 5:13 AM PST (1/23)
Length of Visible Light 10h 14m
Length of Day
9h 04m
Waxing Gibbous, 90% of the Moon is Illuminated
Jan 23
Waxing Gibbous
Jan 26
Full
Feb 3
Last Quarter
Feb 9
New
Feb 17
First Quarter

Hourly Weather History & Observations

Time (PST) Temp. Windchill Dew Point Humidity Pressure Visibility Wind Dir Wind Speed Gust Speed Precip Events Conditions
12:00 AM 37.4 °F - 35.6 °F 93% 29.94 in 12.0 mi SSW 2.3 mph - N/A   Overcast
1:00 AM 37.4 °F - 33.8 °F 87% 29.94 in 12.0 mi NNW 2.3 mph - N/A   Overcast
1:36 AM 35.6 °F 32.8 °F - N/A% - 12.0 mi WNW 3.5 mph - N/A   Overcast
2:00 AM 35.6 °F 30.7 °F 33.8 °F 93% 29.94 in 15.0 mi West 5.8 mph - N/A   Overcast
2:38 AM 35.6 °F 31.7 °F - N/A% - 15.0 mi NW 4.6 mph - N/A Rain Light Rain
3:00 AM 37.4 °F 32.8 °F 35.6 °F 93% 29.95 in 15.0 mi South 5.8 mph - N/A Rain Light Rain
4:00 AM 37 °F - 36 °F 92% 29.94 in 12 mi WNW 2.3 mph - - Rain Light Rain
4:00 AM 37.4 °F 34.9 °F 35.6 °F 93% 29.94 in 12.0 mi NW 3.5 mph - N/A Rain Light Rain
5:00 AM 37.4 °F 34.9 °F 35.6 °F 93% 29.91 in 12.0 mi West 3.5 mph - N/A Rain Light Rain
5:18 AM 37.4 °F - - N/A% - 12.0 mi West 2.3 mph - N/A   Overcast
6:00 AM 37.4 °F - 35.6 °F 93% 29.89 in 12.0 mi West 2.3 mph - N/A   Overcast
6:17 AM 37.4 °F 32.8 °F - N/A% - 12.0 mi West 5.8 mph - N/A Rain Light Rain
6:51 AM 37.4 °F 33.8 °F - N/A% - 12.0 mi West 4.6 mph - N/A   Overcast
7:00 AM 37.4 °F 33.8 °F 35.6 °F 93% 29.88 in 12.0 mi West 4.6 mph - N/A   Overcast
7:50 AM 37.4 °F 34.9 °F - N/A% - 12.0 mi West 3.5 mph - N/A Rain Light Rain
9:00 AM 37.4 °F 33.8 °F 35.6 °F 93% 29.87 in 12.0 mi West 4.6 mph - N/A   Overcast
10:00 AM 39 °F - 37 °F 90% 29.86 in 12 mi West 4.6 mph - -   Partly Cloudy
10:00 AM 39.2 °F 35.9 °F 37.4 °F 93% 29.86 in 12.0 mi West 4.6 mph - N/A   Overcast
10:06 AM 39.2 °F 35.9 °F - N/A% - 12.0 mi West 4.6 mph - N/A Rain Light Rain
10:28 AM 39.2 °F 37.0 °F - N/A% - 12.0 mi West 3.5 mph - N/A   Overcast
10:41 AM 39.2 °F 35.0 °F - N/A% - 12.0 mi West 5.8 mph - N/A Rain Light Rain
11:00 AM 39.2 °F 35.0 °F 37.4 °F 93% 29.86 in 12.0 mi West 5.8 mph - N/A Rain Light Rain
12:00 PM 41.0 °F 37.1 °F 37.4 °F 87% 29.85 in 8.0 mi WNW 5.8 mph - N/A Rain Light Rain
1:00 PM 39.2 °F 35.9 °F 37.4 °F 93% 29.83 in 8.0 mi West 4.6 mph - N/A Rain Light Rain
2:00 PM 39.2 °F - 37.4 °F 93% 29.83 in 8.0 mi Calm Calm - N/A Rain Light Rain
2:44 PM 41.0 °F 37.1 °F - N/A% - 8.0 mi ESE 5.8 mph - N/A Rain Light Rain
3:00 PM 41.0 °F 38.0 °F 39.2 °F 93% 29.83 in 8.0 mi SE 4.6 mph - N/A   Overcast
4:00 PM 42 °F - 40 °F 90% 29.86 in 12 mi South 2.3 mph - -   Partly Cloudy
4:00 PM 42.8 °F - 41.0 °F 93% 29.86 in 12.0 mi South 2.3 mph - N/A   Mostly Cloudy
5:00 PM 39.2 °F - 37.4 °F 93% 29.88 in 15.0 mi West 2.3 mph - N/A   Mostly Cloudy
6:00 PM 39.2 °F - 37.4 °F 93% 29.90 in 8.0 mi Calm Calm - N/A   Mostly Cloudy
7:00 PM 39.2 °F - 37.4 °F 93% 29.93 in 12.0 mi Calm Calm - N/A   Mostly Cloudy
8:00 PM 35.6 °F - 35.6 °F 100% 29.96 in 15.0 mi West 2.3 mph - N/A   Partly Cloudy
9:00 PM 35.6 °F - 35.6 °F 100% 30.00 in 20.0 mi SSW 2.3 mph - N/A   Partly Cloudy
10:00 PM 37 °F - 35 °F 91% 30.04 in 19 mi South 3.5 mph - -   Scattered Clouds
10:00 PM 37.4 °F - 35.6 °F 93% 30.04 in 20.0 mi South 2.3 mph - N/A   Partly Cloudy
10:13 PM 33.8 °F - - N/A% - 20.0 mi WSW 2.3 mph - N/A   Partly Cloudy
11:00 PM 33.8 °F - 33.8 °F 100% 30.06 in 30.0 mi SW 2.3 mph - N/A   Partly Cloudy